Starlink 31058

operational
NORAD ID: 58677 Int'l Des: 2023-211 Owner: SPXS Country: US Constellation: starlink
LEOCIRCULAR

About Starlink 31058

Description loading...

Live Position

Loading 3D Globe...

Upcoming Passes

Altitude History

Altitude vs Time

uPlot chart will show altitude changes over time

Two-Line Element Set

1 58677U 23211L 25260.45819638 -.00006207 00000-0 -21640-3 0 9994
2 58677 43.0020 343.3847 0001211 259.5351 100.5364 15.27554471 95971
Epoch: Sep 17, 2025 • Age: 35 hours

Current Status

Altitude 488.0 km
Velocity 7.62 km/s
Sub-Earth Point -22.68°S, 153.41°W
Launch Date Dec 29, 2023
Age 1.7 years
Type internet

Technical Details

Classification Payload
Mass 730.00 kg
Dry Mass 700.00 kg
Total Mass 730.00 kg
Length 0.30 m
Diameter 4.10 m
Span 29.00 m
Shape Box + pan
Manufacturer SPXS
Bus Type Starlink V2M
Phase Status In Orbit
Owner/State SPXS/US

Large Constellations

Loading constellations...